• In United Kingdom
  • List of Countries
  • For 7 days
  • Water Temperature
  • Satellite Maps
  • Weather Map
  • Weather Widgets
  • user-avatar
    Login

    Hourly Weather Etchmiadzin

    Today, 23 May, Wednesday

    Time Temperature Precipitation Wind Pressure Humidity
    00:00 +19°C° 0.5 mm 1 mps 689 mmHg 78%
    01:00 +19°C° 0.2 mm 1 mps 689 mmHg 79%
    02:00 +18°C° 0.2 mm 1 mps 689 mmHg 80%
    03:00 +18°C° 0.2 mm 1 mps 689 mmHg 81%
    04:00 +19°C° 0.1 mm 1 mps 689 mmHg 80%
    05:00 +19°C° 0.1 mm 1 mps 689 mmHg 78%
    06:00 +19°C° 0.1 mm 1 mps 689 mmHg 76%
    07:00 +21°C° 0.1 mm 1 mps 690 mmHg 69%
    08:00 +21°C° 0.1 mm 2 mps 690 mmHg 63%
    09:00 +23°C° 0.1 mm 2 mps 690 mmHg 57%
    10:00 +24°C° 0.2 mm 2 mps 690 mmHg 53%
    11:00 +25°C° 0.2 mm 2 mps 690 mmHg 50%
    12:00 +27°C° 0.2 mm 3 mps 689 mmHg 47%
    13:00 +27°C° 0.5 mm 3 mps 689 mmHg 46%
    14:00 +27°C° 0.5 mm 3 mps 689 mmHg 45%
    15:00 +28°C° 0.5 mm 4 mps 689 mmHg 44%
    16:00 +27°C° 0.5 mm 3 mps 688 mmHg 47%
    17:00 +26°C° 0.5 mm 3 mps 688 mmHg 50%
    18:00 +26°C° 0.5 mm 3 mps 688 mmHg 53%
    19:00 +24°C° 0.4 mm 3 mps 688 mmHg 57%
    20:00 +21°C° 0.4 mm 3 mps 688 mmHg 61%
    21:00 +20°C° 0.4 mm 3 mps 689 mmHg 66%
    22:00 +19°C° 0.1 mm 2 mps 688 mmHg 65%
    23:00 +19°C° 0.1 mm 2 mps 688 mmHg 65%

    Tomorrow, 24 May, Thursday

    Time Temperature Precipitation Wind Pressure Humidity
    00:00 +18°C° 0.1 mm 2 mps 688 mmHg 65%
    01:00 +18°C° 0.1 mm 2 mps 688 mmHg 65%
    02:00 +17°C° 0.1 mm 2 mps 688 mmHg 65%
    03:00 +17°C° 0.1 mm 2 mps 688 mmHg 65%
    04:00 +17°C° 0 mm 2 mps 688 mmHg 64%
    05:00 +18°C° 0 mm 2 mps 688 mmHg 63%
    06:00 +19°C° 0 mm 1 mps 688 mmHg 62%
    07:00 +21°C° 0 mm 1 mps 688 mmHg 56%
    08:00 +22°C° 0 mm 1 mps 688 mmHg 50%
    09:00 +24°C° 0 mm 1 mps 688 mmHg 44%
    10:00 +25°C° 0 mm 2 mps 687 mmHg 41%
    11:00 +26°C° 0 mm 2 mps 687 mmHg 39%
    12:00 +27°C° 0 mm 2 mps 687 mmHg 36%
    13:00 +27°C° 0 mm 2 mps 687 mmHg 35%
    14:00 +28°C° 0 mm 3 mps 686 mmHg 35%
    15:00 +28°C° 0 mm 3 mps 686 mmHg 34%
    16:00 +27°C° 0.1 mm 3 mps 686 mmHg 38%
    17:00 +27°C° 0.1 mm 3 mps 686 mmHg 41%
    18:00 +26°C° 0.1 mm 2 mps 685 mmHg 44%
    19:00 +24°C° 0 mm 2 mps 685 mmHg 49%
    20:00 +21°C° 0 mm 2 mps 685 mmHg 54%
    21:00 +20°C° 0 mm 2 mps 685 mmHg 59%
    22:00 +19°C° 0 mm 2 mps 685 mmHg 60%
    23:00 +18°C° 0 mm 2 mps 685 mmHg 62%

    Day after tomorrow, 25 May, Friday

    Time Temperature Precipitation Wind Pressure Humidity
    00:00 +18°C° 0 mm 2 mps 685 mmHg 63%
    01:00 +17°C° 0 mm 2 mps 685 mmHg 64%
    02:00 +18°C° 0 mm 1 mps 684 mmHg 65%
    03:00 +18°C° 0 mm 1 mps 684 mmHg 66%
    04:00 +18°C° 0 mm 1 mps 684 mmHg 64%
    05:00 +19°C° 0 mm 1 mps 684 mmHg 63%
    06:00 +20°C° 0 mm 1 mps 684 mmHg 62%
    07:00 +21°C° 0 mm 1 mps 684 mmHg 57%
    08:00 +23°C° 0 mm 1 mps 684 mmHg 53%
    09:00 +24°C° 0 mm 2 mps 684 mmHg 48%
    10:00 +25°C° 0.2 mm 2 mps 684 mmHg 47%
    11:00 +26°C° 0.2 mm 2 mps 684 mmHg 45%
    12:00 +27°C° 0.2 mm 2 mps 684 mmHg 44%
    13:00 +27°C° 0.6 mm 2 mps 683 mmHg 43%
    14:00 +27°C° 0.6 mm 2 mps 683 mmHg 43%
    15:00 +28°C° 0.6 mm 2 mps 683 mmHg 43%
    16:00 +27°C° 0.4 mm 2 mps 683 mmHg 45%
    17:00 +26°C° 0.4 mm 2 mps 683 mmHg 48%
    18:00 +26°C° 0.4 mm 1 mps 683 mmHg 50%
    19:00 +24°C° 0.3 mm 1 mps 683 mmHg 54%
    20:00 +23°C° 0.3 mm 1 mps 683 mmHg 57%
    21:00 +21°C° 0.3 mm 1 mps 683 mmHg 60%
    22:00 +21°C° 0.2 mm 1 mps 683 mmHg 61%
    23:00 +20°C° 0.2 mm 1 mps 683 mmHg 63%

    26 May, Saturday

    Time Temperature Precipitation Wind Pressure Humidity
    00:00 +20°C° 0.2 mm 1 mps 683 mmHg 64%
    01:00 +20°C° 0.1 mm 1 mps 683 mmHg 65%
    02:00 +19°C° 0.1 mm 1 mps 683 mmHg 66%
    03:00 +19°C° 0.1 mm 1 mps 683 mmHg 67%
    04:00 +19°C° 0.1 mm 1 mps 683 mmHg 66%
    05:00 +20°C° 0.1 mm 1 mps 683 mmHg 65%
    06:00 +21°C° 0.1 mm 1 mps 684 mmHg 64%
    07:00 +22°C° 0.1 mm 1 mps 684 mmHg 59%
    08:00 +24°C° 0.1 mm 1 mps 684 mmHg 54%
    09:00 +25°C° 0.1 mm 1 mps 684 mmHg 49%
    10:00 +26°C° 0.4 mm 2 mps 684 mmHg 46%
    11:00 +27°C° 0.4 mm 2 mps 684 mmHg 44%
    12:00 +28°C° 0.4 mm 2 mps 684 mmHg 41%
    13:00 +28°C° 0.8 mm 2 mps 683 mmHg 41%
    14:00 +28°C° 0.8 mm 2 mps 683 mmHg 41%
    15:00 +29°C° 0.8 mm 2 mps 683 mmHg 41%
    16:00 +28°C° 1.3 mm 2 mps 683 mmHg 46%
    17:00 +27°C° 1.3 mm 3 mps 683 mmHg 50%
    18:00 +26°C° 1.3 mm 3 mps 683 mmHg 55%
    19:00 +25°C° 0.7 mm 3 mps 684 mmHg 58%
    20:00 +23°C° 0.7 mm 2 mps 684 mmHg 61%
    21:00 +21°C° 0.7 mm 2 mps 685 mmHg 65%
    22:00 +20°C° 0.6 mm 2 mps 685 mmHg 66%
    23:00 +20°C° 0.6 mm 2 mps 685 mmHg 67%

    27 May, Sunday

    Time Temperature Precipitation Wind Pressure Humidity
    00:00 +20°C° 0.6 mm 1 mps 685 mmHg 68%
    01:00 +20°C° 0.4 mm 1 mps 685 mmHg 68%
    02:00 +19°C° 0.4 mm 1 mps 686 mmHg 69%
    03:00 +19°C° 0.4 mm 1 mps 686 mmHg 69%
    04:00 +20°C° 0 mm 1 mps 686 mmHg 68%
    05:00 +20°C° 0 mm 1 mps 687 mmHg 68%
    06:00 +21°C° 0 mm 1 mps 687 mmHg 67%
    07:00 +22°C° 0 mm 1 mps 688 mmHg 60%
    08:00 +24°C° 0 mm 2 mps 688 mmHg 54%
    09:00 +26°C° 0 mm 2 mps 689 mmHg 47%
    10:00 +26°C° 0 mm 2 mps 689 mmHg 44%
    11:00 +27°C° 0 mm 2 mps 689 mmHg 42%
    12:00 +28°C° 0 mm 2 mps 690 mmHg 39%
    13:00 +29°C° 0.1 mm 2 mps 690 mmHg 38%
    14:00 +29°C° 0.1 mm 2 mps 690 mmHg 38%
    15:00 +29°C° 0.1 mm 2 mps 690 mmHg 37%
    16:00 +28°C° 0.1 mm 3 mps 690 mmHg 42%
    17:00 +27°C° 0.1 mm 3 mps 690 mmHg 46%
    18:00 +26°C° 0.1 mm 4 mps 690 mmHg 51%
    19:00 +23°C° 0 mm 4 mps 690 mmHg 56%
    20:00 +22°C° 0 mm 3 mps 690 mmHg 62%
    21:00 +20°C° 0 mm 3 mps 690 mmHg 68%
    22:00 +19°C° 0 mm 3 mps 690 mmHg 69%
    23:00 +19°C° 0 mm 2 mps 690 mmHg 70%

    28 May, Monday

    Time Temperature Precipitation Wind Pressure Humidity
    00:00 +18°C° 0 mm 2 mps 690 mmHg 72%
    01:00 +18°C° 0 mm 2 mps 690 mmHg 72%
    02:00 +17°C° 0 mm 2 mps 690 mmHg 72%
    03:00 +18°C° 0 mm 1 mps 690 mmHg 73%
    04:00 +19°C° 0 mm 1 mps 690 mmHg 70%
    05:00 +20°C° 0 mm 1 mps 690 mmHg 67%
    06:00 +21°C° 0 mm 1 mps 690 mmHg 64%
    07:00 +22°C° 0 mm 1 mps 690 mmHg 58%
    08:00 +24°C° 0 mm 1 mps 690 mmHg 52%
    09:00 +26°C° 0 mm 2 mps 690 mmHg 47%
    10:00 +27°C° 0 mm 2 mps 690 mmHg 44%
    11:00 +28°C° 0 mm 2 mps 689 mmHg 40%
    12:00 +30°C° 0 mm 2 mps 689 mmHg 37%
    13:00 +30°C° 0 mm 2 mps 689 mmHg 36%
    14:00 +30°C° 0 mm 2 mps 689 mmHg 35%
    15:00 +31°C° 0 mm 2 mps 688 mmHg 33%
    16:00 +30°C° 0.3 mm 2 mps 688 mmHg 37%
    17:00 +30°C° 0.3 mm 2 mps 688 mmHg 40%
    18:00 +29°C° 0.3 mm 2 mps 688 mmHg 44%
    19:00 +27°C° 0.4 mm 1 mps 688 mmHg 49%
    20:00 +25°C° 0.4 mm 1 mps 688 mmHg 54%
    21:00 +23°C° 0.4 mm 1 mps 688 mmHg 59%
    22:00 +21°C° 0.4 mm 2 mps 688 mmHg 62%
    23:00 +21°C° 0.4 mm 2 mps 688 mmHg 65%
    Show more